AirNav   Air Wisconsin Up To $57,000 Bonus
 
 795 users online  

7MO0 Truman Medical Center East Heliport
Kansas City, Missouri, USA

GOING TO KANSAS CITY?


FAA INFORMATION EFFECTIVE 05 DECEMBER 2019

Location

FAA Identifier: 7MO0
Lat/Long: 38-58-24.8500N 094-23-35.3200W
38-58.414167N 094-23.588667W
38.9735694,-94.3931444
(estimated)
Elevation: 983 ft. / 300 m (estimated)
Variation: 05E (1990)
From city: 7 miles S of KANSAS CITY, MO
Time zone: UTC -6 (UTC -5 during Daylight Saving Time)
Zip code: 64139

Heliport Operations

Heliport use: Private use, MEDICAL USE.
Activation date: 02/1993
Control tower: no
ARTCC: KANSAS CITY CENTER
FSS: COLUMBIA FLIGHT SERVICE STATION
Attendance: UNATNDD
Wind indicator: yes
Segmented circle: no
Lights: SS-SR
Beacon: white-green-yellow (heliport)
Operates sunset to sunrise.

Heliport Communications

WX ASOS at LXT (1.3 nm SE): 124.175 (816-347-9807)
WX ASOS at MKC (13 nm NW): PHONE 816-329-2843
WX ASOS at OJC (18 nm SW): PHONE 913-780-6969

Nearby radio navigation aids

VOR radial/distance  VOR name  Freq  Var
ANXr232/14.3NAPOLEON VORTAC114.0007E
MCIr134/24.6KANSAS CITY VORTAC113.2505E

Heliport Services

Runway Information

Helipad H1

Dimensions: 35 x 35 ft. / 11 x 11 m
Surface: concrete
Runway edge lights: PERI
AND FLOOD LGTS.
Latitude: 38-58.414167N
Longitude: 094-23.588667W
Elevation: 983.0 ft.
Traffic pattern: leftleft

Heliport Ownership and Management from official FAA records

Ownership: Privately-owned
Owner: TRUMAN MEDICAL CENTER EAST
7900 LEE'S SUMMIT ROAD
KANSAS CITY, MO 64139
Phone 816-373-4415
Manager: DIRECTOR OF FACILITIES
7900 LEE'S SUMMIT ROAD
KANSAS CITY, MO 64139
Phone 816-373-4415
EXT 1292.

Additional Remarks

A52-H1 40 FT BLDG 90 FT W.
OWNER DESIRES ARPT NOT BE CHARTED.
FOR CD CTC KANSAS CITY APCH AT 816-329-2710.

Instrument Procedures

There are no published instrument procedures at 7MO0.

Some nearby airports with instrument procedures:

KLXT - Lee's Summit Municipal Airport (1 nm SE)
3GV - East Kansas City Airport (9 nm E)
KMKC - Charles B Wheeler Downtown Airport (13 nm NW)
KOJC - Johnson County Executive Airport (18 nm SW)
KGPH - Midwest National Air Center Airport (22 nm N)
 
Loc | Ops | Rwys | IFR | FBO | Links
Com | Nav | Svcs | Stats | Notes

Kansas City Aviation Department
 
Area around 7MO0 (Truman Medical Center East Heliport)
 
Road maps at: MapQuest Bing Google
 
Aerial photo
No photo
 
Sectional chart

 
Airport distance calculator
Flying to Truman Medical Center East Heliport? Find the distance to fly.

From to 7MO0

Sunrise and sunset
Times for 15-Dec-2019
 Local
(UTC-6)
 Zulu
(UTC)
Morning civil twilight07:0013:00
Sunrise07:3013:30
Sunset16:5522:55
Evening civil twilight17:2523:25

Current date and time
Zulu (UTC)  16-Dec-2019 00:56:13
Local (UTC-6)  15-Dec-2019 18:56:13
 
METAR
KLXT 160031Z AUTO 03008KT 3SM -SN SCT009 BKN027 OVC035 M04/M07 A3001 RMK AO2 P0000 T10391067
KMKC 
13nm NW 
160020Z 02007KT 3SM -SN BR FEW007 BKN035 OVC048 M04/M06 A3002 RMK AO2 P0000 T10391061
KOJC 
18nm SW 
160027Z 03008KT 3SM -SN BR OVC029 M04/M05 A2999 RMK AO2 P0000 T10441050
TAF
KMKC 
13nm NW 
152217Z 1522/1618 06005KT 1/2SM SN OVC012 FM160100 05006KT P6SM OVC012 FM161500 01006KT 5SM -SN OVC010
NOTAMs
Click for the latest NOTAMs
NOTAMs are issued by the DoD/FAA and will open in a separate window not controlled by AirNav.

 

 
 

Would you like to see your business listed on this page?

 If your business provides an interesting product or service to pilots, flight crews, aircraft, or users of the Truman Medical Center East Heliport, you should consider listing it here.  To start the listing process, click on the button below
 
Add a business
 

Other Pages about Truman Medical Center East Heliport

Update a link
 
Copyright © AirNav, LLC. All rights reserved. Privacy Policy  Contact